• In Deutschland
  • Länderverzeichnis
  • Für 7 Tage
  • Wassertemperatur
  • Satellitenkarten
  • Wetterkarte
  • Widgets
  • user-avatar
    Anmelden

    Stündliche Wetter Madingou

    Heute, 20 November, Montag

    Zeit Temperatur Niederschläge Wind Luftdruck Luftfeuchtigkeit
    00:00 +25°C° 0,1 mm 1 m/S 745 mmHg 94%
    01:00 +23°C° 0,1 mm 0 m/S 745 mmHg 95%
    02:00 +23°C° 0 mm 0 m/S 745 mmHg 95%
    03:00 +22°C° 0 mm 0 m/S 744 mmHg 96%
    04:00 +22°C° 0 mm 0 m/S 744 mmHg 97%
    05:00 +23°C° 0 mm 0 m/S 744 mmHg 96%
    06:00 +23°C° 0 mm 0 m/S 745 mmHg 95%
    07:00 +24°C° 0 mm 0 m/S 745 mmHg 93%
    08:00 +26°C° 0 mm 0 m/S 745 mmHg 85%
    09:00 +28°C° 0 mm 0 m/S 745 mmHg 76%
    10:00 +30°C° 0 mm 0 m/S 745 mmHg 67%
    11:00 +31°C° 0,3 mm 0 m/S 745 mmHg 65%
    12:00 +31°C° 0,3 mm 0 m/S 744 mmHg 63%
    13:00 +31°C° 0,3 mm 0 m/S 744 mmHg 61%
    14:00 +33°C° 1 mm 1 m/S 743 mmHg 66%
    15:00 +32°C° 1 mm 1 m/S 743 mmHg 70%
    16:00 +31°C° 1 mm 1 m/S 742 mmHg 75%
    17:00 +30°C° 0,3 mm 1 m/S 743 mmHg 78%
    18:00 +26°C° 0,3 mm 0 m/S 743 mmHg 82%
    19:00 +25°C° 0,3 mm 0 m/S 743 mmHg 86%
    20:00 +25°C° 0 mm 0 m/S 744 mmHg 87%
    21:00 +25°C° 0 mm 0 m/S 744 mmHg 88%
    22:00 +25°C° 0 mm 0 m/S 745 mmHg 88%
    23:00 +24°C° 0 mm 0 m/S 744 mmHg 89%

    Morgen, 21 November, Dienstag

    Zeit Temperatur Niederschläge Wind Luftdruck Luftfeuchtigkeit
    00:00 +24°C° 0 mm 0 m/S 744 mmHg 90%
    01:00 +24°C° 0 mm 0 m/S 744 mmHg 91%
    02:00 +23°C° 0 mm 0 m/S 744 mmHg 93%
    03:00 +23°C° 0 mm 0 m/S 743 mmHg 94%
    04:00 +23°C° 0 mm 0 m/S 743 mmHg 95%
    05:00 +23°C° 0 mm 0 m/S 744 mmHg 94%
    06:00 +26°C° 0 mm 1 m/S 744 mmHg 93%
    07:00 +26°C° 0 mm 1 m/S 744 mmHg 91%
    08:00 +28°C° 0,1 mm 1 m/S 745 mmHg 85%
    09:00 +29°C° 0,1 mm 1 m/S 745 mmHg 79%
    10:00 +31°C° 0,1 mm 1 m/S 745 mmHg 72%
    11:00 +32°C° 0,7 mm 1 m/S 744 mmHg 70%
    12:00 +32°C° 0,7 mm 1 m/S 743 mmHg 67%
    13:00 +33°C° 0,7 mm 1 m/S 742 mmHg 64%
    14:00 +33°C° 0,7 mm 1 m/S 742 mmHg 66%
    15:00 +32°C° 0,7 mm 1 m/S 742 mmHg 68%
    16:00 +32°C° 0,7 mm 1 m/S 741 mmHg 70%
    17:00 +30°C° 2,7 mm 1 m/S 742 mmHg 77%
    18:00 +29°C° 2,7 mm 1 m/S 743 mmHg 83%
    19:00 +27°C° 2,7 mm 1 m/S 743 mmHg 90%
    20:00 +27°C° 0,7 mm 1 m/S 744 mmHg 91%
    21:00 +26°C° 0,7 mm 1 m/S 745 mmHg 92%
    22:00 +26°C° 0,7 mm 1 m/S 745 mmHg 93%
    23:00 +26°C° 0,1 mm 1 m/S 745 mmHg 93%

    übermorgen, 22 November, Mittwoch

    Zeit Temperatur Niederschläge Wind Luftdruck Luftfeuchtigkeit
    00:00 +26°C° 0,1 mm 1 m/S 745 mmHg 94%
    01:00 +26°C° 0,1 mm 1 m/S 744 mmHg 94%
    02:00 +26°C° 0,2 mm 1 m/S 744 mmHg 95%
    03:00 +26°C° 0,2 mm 1 m/S 743 mmHg 95%
    04:00 +25°C° 0,2 mm 1 m/S 743 mmHg 96%
    05:00 +25°C° 0,1 mm 1 m/S 744 mmHg 95%
    06:00 +26°C° 0,1 mm 1 m/S 744 mmHg 95%
    07:00 +26°C° 0,1 mm 1 m/S 745 mmHg 94%
    08:00 +27°C° 0,2 mm 1 m/S 745 mmHg 90%
    09:00 +28°C° 0,2 mm 1 m/S 745 mmHg 86%
    10:00 +28°C° 0,2 mm 1 m/S 746 mmHg 83%
    11:00 +30°C° 0,1 mm 2 m/S 745 mmHg 77%
    12:00 +31°C° 0,1 mm 2 m/S 744 mmHg 71%
    13:00 +32°C° 0,1 mm 2 m/S 743 mmHg 66%
    14:00 +31°C° 0,4 mm 2 m/S 743 mmHg 69%
    15:00 +31°C° 0,4 mm 2 m/S 742 mmHg 71%
    16:00 +30°C° 0,4 mm 2 m/S 742 mmHg 74%
    17:00 +29°C° 0,2 mm 1 m/S 743 mmHg 78%
    18:00 +28°C° 0,2 mm 1 m/S 743 mmHg 82%
    19:00 +27°C° 0,2 mm 1 m/S 744 mmHg 86%
    20:00 +26°C° 0 mm 1 m/S 744 mmHg 88%
    21:00 +26°C° 0 mm 1 m/S 745 mmHg 89%
    22:00 +26°C° 0 mm 1 m/S 745 mmHg 91%
    23:00 +25°C° 0 mm 1 m/S 744 mmHg 92%

    23 November, Donnerstag

    Zeit Temperatur Niederschläge Wind Luftdruck Luftfeuchtigkeit
    00:00 +25°C° 0 mm 1 m/S 744 mmHg 93%
    01:00 +25°C° 0 mm 1 m/S 743 mmHg 93%
    02:00 +25°C° 0 mm 1 m/S 743 mmHg 94%
    03:00 +25°C° 0 mm 1 m/S 743 mmHg 94%
    04:00 +22°C° 0 mm 0 m/S 743 mmHg 95%
    05:00 +23°C° 0 mm 0 m/S 744 mmHg 94%
    06:00 +23°C° 0 mm 0 m/S 744 mmHg 93%
    07:00 +23°C° 0 mm 0 m/S 745 mmHg 92%
    08:00 +27°C° 0 mm 1 m/S 745 mmHg 84%
    09:00 +28°C° 0 mm 1 m/S 745 mmHg 77%
    10:00 +30°C° 0 mm 1 m/S 745 mmHg 70%
    11:00 +31°C° 0,1 mm 1 m/S 744 mmHg 67%
    12:00 +31°C° 0,1 mm 2 m/S 743 mmHg 64%
    13:00 +32°C° 0,1 mm 2 m/S 743 mmHg 61%
    14:00 +32°C° 0,1 mm 2 m/S 742 mmHg 63%
    15:00 +32°C° 0,1 mm 2 m/S 742 mmHg 65%
    16:00 +31°C° 0,1 mm 2 m/S 741 mmHg 67%
    17:00 +30°C° 0 mm 2 m/S 742 mmHg 73%
    18:00 +28°C° 0 mm 1 m/S 743 mmHg 78%
    19:00 +27°C° 0 mm 1 m/S 743 mmHg 84%
    20:00 +27°C° 0,4 mm 1 m/S 744 mmHg 87%
    21:00 +26°C° 0,4 mm 1 m/S 744 mmHg 89%
    22:00 +24°C° 0,4 mm 0 m/S 744 mmHg 92%
    23:00 +25°C° 0,1 mm 1 m/S 744 mmHg 93%

    24 November, Freitag

    Zeit Temperatur Niederschläge Wind Luftdruck Luftfeuchtigkeit
    00:00 +25°C° 0,1 mm 1 m/S 744 mmHg 94%
    01:00 +25°C° 0,1 mm 1 m/S 743 mmHg 95%
    02:00 +25°C° 0,2 mm 1 m/S 743 mmHg 95%
    03:00 +25°C° 0,2 mm 1 m/S 743 mmHg 96%
    04:00 +23°C° 0,2 mm 0 m/S 743 mmHg 96%
    05:00 +23°C° 0,1 mm 0 m/S 744 mmHg 95%
    06:00 +23°C° 0,1 mm 0 m/S 744 mmHg 94%
    07:00 +24°C° 0,1 mm 0 m/S 745 mmHg 93%
    08:00 +27°C° 0,2 mm 1 m/S 745 mmHg 87%
    09:00 +28°C° 0,2 mm 1 m/S 745 mmHg 82%
    10:00 +29°C° 0,2 mm 1 m/S 745 mmHg 77%
    11:00 +30°C° 0,4 mm 1 m/S 744 mmHg 72%
    12:00 +31°C° 0,4 mm 1 m/S 743 mmHg 68%
    13:00 +32°C° 0,4 mm 1 m/S 742 mmHg 63%
    14:00 +32°C° 0 mm 1 m/S 742 mmHg 62%
    15:00 +32°C° 0 mm 1 m/S 742 mmHg 60%
    16:00 +33°C° 0 mm 1 m/S 741 mmHg 59%
    17:00 +31°C° 0,1 mm 1 m/S 742 mmHg 67%
    18:00 +29°C° 0,1 mm 1 m/S 742 mmHg 74%
    19:00 +27°C° 0,1 mm 1 m/S 743 mmHg 82%
    20:00 +27°C° 0,2 mm 1 m/S 744 mmHg 84%
    21:00 +27°C° 0,2 mm 1 m/S 744 mmHg 86%
    22:00 +26°C° 0,2 mm 1 m/S 744 mmHg 88%
    23:00 +26°C° 0,2 mm 1 m/S 744 mmHg 90%

    25 November, Samstag

    Zeit Temperatur Niederschläge Wind Luftdruck Luftfeuchtigkeit
    00:00 +25°C° 0,2 mm 1 m/S 744 mmHg 92%
    01:00 +25°C° 0,2 mm 2 m/S 744 mmHg 94%
    02:00 +25°C° 0,1 mm 1 m/S 744 mmHg 95%
    03:00 +25°C° 0,1 mm 1 m/S 744 mmHg 95%
    04:00 +25°C° 0,1 mm 1 m/S 744 mmHg 96%
    05:00 +25°C° 0,1 mm 1 m/S 744 mmHg 94%
    06:00 +25°C° 0,1 mm 1 m/S 745 mmHg 93%
    07:00 +26°C° 0,1 mm 1 m/S 745 mmHg 92%
    08:00 +27°C° 0,2 mm 1 m/S 745 mmHg 84%
    09:00 +29°C° 0,2 mm 1 m/S 745 mmHg 77%
    10:00 +31°C° 0,2 mm 1 m/S 745 mmHg 70%
    11:00 +31°C° 1,5 mm 2 m/S 744 mmHg 71%
    12:00 +31°C° 1,5 mm 2 m/S 743 mmHg 71%
    13:00 +31°C° 1,5 mm 2 m/S 743 mmHg 72%
    14:00 +31°C° 2,5 mm 2 m/S 742 mmHg 76%
    15:00 +30°C° 2,5 mm 2 m/S 742 mmHg 80%
    16:00 +29°C° 2,5 mm 2 m/S 742 mmHg 83%
    17:00 +28°C° 0,7 mm 2 m/S 742 mmHg 86%
    18:00 +27°C° 0,7 mm 1 m/S 743 mmHg 89%
    19:00 +26°C° 0,7 mm 1 m/S 744 mmHg 92%
    20:00 +26°C° 1,8 mm 1 m/S 744 mmHg 92%
    21:00 +26°C° 1,8 mm 2 m/S 745 mmHg 92%
    22:00 +26°C° 1,8 mm 2 m/S 745 mmHg 92%
    23:00 +26°C° 1 mm 2 m/S 745 mmHg 94%
    Mehr zeigen